Time,TemperatureF,DewpointF,PressureIn,WindDirection,WindDirectionDegrees,WindSpeedMPH,WindSpeedGustMPH,Humidity,HourlyPrecipIn,Conditions,Clouds,dailyrainin,SolarRadiationWatts/m^2,SoftwareType,DateUTC
2013-03-23 00:02:00,18.0,9.0,-100.00,West,281,4.0,8.0,68,0.00,,,0.00,0.000000,,2013-03-23 05:02:00,
2013-03-23 00:33:00,16.0,13.0,-100.00,South,184,2.0,4.0,87,0.00,,,0.00,0.000000,,2013-03-23 05:33:00,
2013-03-23 00:42:00,16.0,13.0,-100.00,South,184,2.0,4.0,87,0.00,,,0.00,0.000000,,2013-03-23 05:42:00,
2013-03-23 00:52:00,16.0,13.0,-100.00,South,184,2.0,4.0,87,0.00,,,0.00,0.000000,,2013-03-23 05:52:00,
2013-03-23 01:02:00,16.0,13.0,-100.00,South,184,2.0,4.0,87,0.00,,,0.00,0.000000,,2013-03-23 06:02:00,
2013-03-23 01:32:00,14.0,10.0,-100.00,West,267,1.0,3.0,83,0.00,,,0.00,0.000000,,2013-03-23 06:32:00,
2013-03-23 01:42:00,14.0,10.0,-100.00,West,267,1.0,3.0,83,0.00,,,0.00,0.000000,,2013-03-23 06:42:00,
2013-03-23 01:52:00,14.0,10.0,-100.00,West,267,1.0,3.0,83,0.00,,,0.00,0.000000,,2013-03-23 06:52:00,
2013-03-23 02:02:00,14.0,10.0,-100.00,West,267,1.0,3.0,83,0.00,,,0.00,0.000000,,2013-03-23 07:02:00,
2013-03-23 02:33:00,14.0,8.0,-100.00,SW,219,2.0,4.0,78,0.00,,,0.00,0.000000,,2013-03-23 07:33:00,
2013-03-23 02:42:00,14.0,8.0,-100.00,SW,219,2.0,4.0,78,0.00,,,0.00,0.000000,,2013-03-23 07:42:00,
2013-03-23 02:52:00,14.0,8.0,-100.00,SW,219,2.0,4.0,78,0.00,,,0.00,0.000000,,2013-03-23 07:52:00,
2013-03-23 03:02:00,14.0,8.0,-100.00,SW,219,2.0,4.0,78,0.00,,,0.00,0.000000,,2013-03-23 08:02:00,
2013-03-23 03:32:00,16.0,12.0,-100.00,NNW,346,2.0,4.0,83,0.00,,,0.00,0.000000,,2013-03-23 08:32:00,
2013-03-23 03:42:00,16.0,12.0,-100.00,NNW,346,2.0,4.0,83,0.00,,,0.00,0.000000,,2013-03-23 08:42:00,
2013-03-23 03:52:00,16.0,12.0,-100.00,NNW,346,2.0,4.0,83,0.00,,,0.00,0.000000,,2013-03-23 08:52:00,
2013-03-23 04:02:00,16.0,12.0,-100.00,NNW,346,2.0,4.0,83,0.00,,,0.00,0.000000,,2013-03-23 09:02:00,
2013-03-23 04:33:00,16.0,12.0,-100.00,SSW,192,2.0,5.0,83,0.00,,,0.00,0.000000,,2013-03-23 09:33:00,
2013-03-23 04:43:00,16.0,12.0,-100.00,SSW,192,2.0,5.0,83,0.00,,,0.00,0.000000,,2013-03-23 09:43:00,
2013-03-23 04:53:00,16.0,12.0,-100.00,SSW,192,2.0,5.0,83,0.00,,,0.00,0.000000,,2013-03-23 09:53:00,
2013-03-23 05:03:00,16.0,12.0,-100.00,SSW,192,2.0,5.0,83,0.00,,,0.00,0.000000,,2013-03-23 10:03:00,
2013-03-23 05:34:00,16.0,11.0,-100.00,SW,232,1.0,2.0,82,0.00,,,0.00,0.000000,,2013-03-23 10:34:00,
2013-03-23 05:43:00,16.0,11.0,-100.00,SW,232,1.0,2.0,82,0.00,,,0.00,0.000000,,2013-03-23 10:43:00,
2013-03-23 05:52:00,16.0,11.0,-100.00,SW,232,1.0,2.0,82,0.00,,,0.00,0.000000,,2013-03-23 10:52:00,
2013-03-23 06:03:00,16.0,11.0,-100.00,SW,232,1.0,2.0,82,0.00,,,0.00,0.000000,,2013-03-23 11:03:00,
2013-03-23 06:32:00,13.0,9.0,-100.00,SW,216,3.0,4.0,82,0.00,,,0.00,0.000000,,2013-03-23 11:32:00,
2013-03-23 06:42:00,13.0,9.0,-100.00,SW,216,3.0,4.0,82,0.00,,,0.00,0.000000,,2013-03-23 11:42:00,
2013-03-23 06:52:00,13.0,9.0,-100.00,SW,216,3.0,4.0,82,0.00,,,0.00,0.000000,,2013-03-23 11:52:00,
2013-03-23 07:02:00,13.0,9.0,-100.00,SW,216,3.0,4.0,82,0.00,,,0.00,0.000000,,2013-03-23 12:02:00,
2013-03-23 07:33:00,11.0,9.0,-100.00,SSW,194,2.0,4.0,90,0.00,,,0.00,2.000000,,2013-03-23 12:33:00,
2013-03-23 07:43:00,11.0,9.0,-100.00,SSW,194,2.0,4.0,90,0.00,,,0.00,2.000000,,2013-03-23 12:43:00,
2013-03-23 07:53:00,11.0,9.0,-100.00,SSW,194,2.0,4.0,90,0.00,,,0.00,2.000000,,2013-03-23 12:53:00,
2013-03-23 08:03:00,11.0,9.0,-100.00,SSW,194,2.0,4.0,90,0.00,,,0.00,2.000000,,2013-03-23 13:03:00,
2013-03-23 08:33:00,15.0,12.0,-100.00,West,277,2.0,4.0,87,0.00,,,0.00,40.000000,,2013-03-23 13:33:00,
2013-03-23 08:43:00,15.0,12.0,-100.00,West,277,2.0,4.0,87,0.00,,,0.00,40.000000,,2013-03-23 13:43:00,
2013-03-23 08:53:00,15.0,12.0,-100.00,West,277,2.0,4.0,87,0.00,,,0.00,40.000000,,2013-03-23 13:53:00,
2013-03-23 09:03:00,15.0,12.0,-100.00,West,277,2.0,4.0,87,0.00,,,0.00,40.000000,,2013-03-23 14:03:00,
2013-03-23 09:33:00,24.0,17.0,-100.00,NNW,330,2.0,3.0,74,0.00,,,0.00,131.000000,,2013-03-23 14:33:00,
2013-03-23 09:43:00,24.0,17.0,-100.00,NNW,330,2.0,3.0,74,0.00,,,0.00,131.000000,,2013-03-23 14:43:00,
2013-03-23 09:53:00,24.0,17.0,-100.00,NNW,330,2.0,3.0,74,0.00,,,0.00,131.000000,,2013-03-23 14:53:00,
2013-03-23 10:03:00,24.0,17.0,-100.00,NNW,330,2.0,3.0,74,0.00,,,0.00,131.000000,,2013-03-23 15:03:00,
2013-03-23 10:34:00,32.0,17.0,-100.00,North,358,3.0,5.0,54,0.00,,,0.00,314.000000,,2013-03-23 15:34:00,
2013-03-23 10:44:00,32.0,17.0,-100.00,North,358,3.0,5.0,54,0.00,,,0.00,314.000000,,2013-03-23 15:44:00,
2013-03-23 10:53:00,32.0,17.0,-100.00,North,358,3.0,5.0,54,0.00,,,0.00,314.000000,,2013-03-23 15:53:00,
2013-03-23 11:03:00,32.0,17.0,-100.00,North,358,3.0,5.0,54,0.00,,,0.00,314.000000,,2013-03-23 16:03:00,
2013-03-23 11:33:00,38.0,21.0,-100.00,ENE,65,4.0,7.0,49,0.00,,,0.00,542.000000,,2013-03-23 16:33:00,
2013-03-23 11:43:00,38.0,21.0,-100.00,ENE,65,4.0,7.0,49,0.00,,,0.00,542.000000,,2013-03-23 16:43:00,
2013-03-23 11:53:00,38.0,21.0,-100.00,ENE,65,4.0,7.0,49,0.00,,,0.00,542.000000,,2013-03-23 16:53:00,
2013-03-23 12:02:00,38.0,21.0,-100.00,ENE,65,4.0,7.0,49,0.00,,,0.00,542.000000,,2013-03-23 17:02:00,
2013-03-23 12:33:00,42.0,21.0,-100.00,East,99,3.0,7.0,42,0.00,,,0.00,675.000000,,2013-03-23 17:33:00,
2013-03-23 12:43:00,42.0,21.0,-100.00,East,99,3.0,7.0,42,0.00,,,0.00,675.000000,,2013-03-23 17:43:00,
2013-03-23 12:53:00,42.0,21.0,-100.00,East,99,3.0,7.0,42,0.00,,,0.00,675.000000,,2013-03-23 17:53:00,
2013-03-23 13:03:00,42.0,21.0,-100.00,East,99,3.0,7.0,42,0.00,,,0.00,675.000000,,2013-03-23 18:03:00,
2013-03-23 13:32:00,41.0,19.0,-100.00,ENE,60,5.0,10.0,41,0.00,,,0.00,762.000000,,2013-03-23 18:32:00,
2013-03-23 13:43:00,41.0,19.0,-100.00,ENE,60,5.0,10.0,41,0.00,,,0.00,762.000000,,2013-03-23 18:43:00,
2013-03-23 13:53:00,41.0,19.0,-100.00,ENE,60,5.0,10.0,41,0.00,,,0.00,762.000000,,2013-03-23 18:53:00,
2013-03-23 14:03:00,41.0,19.0,-100.00,ENE,60,5.0,10.0,41,0.00,,,0.00,762.000000,,2013-03-23 19:03:00,
2013-03-23 14:33:00,40.0,20.0,-100.00,ENE,66,3.0,7.0,45,0.00,,,0.00,650.000000,,2013-03-23 19:33:00,
2013-03-23 14:43:00,40.0,20.0,-100.00,ENE,66,3.0,7.0,45,0.00,,,0.00,650.000000,,2013-03-23 19:43:00,
2013-03-23 14:53:00,40.0,20.0,-100.00,ENE,66,3.0,7.0,45,0.00,,,0.00,650.000000,,2013-03-23 19:53:00,
2013-03-23 15:02:00,40.0,20.0,-100.00,ENE,66,3.0,7.0,45,0.00,,,0.00,650.000000,,2013-03-23 20:02:00,
2013-03-23 15:33:00,43.0,19.0,-100.00,West,275,4.0,10.0,38,0.00,,,0.00,547.000000,,2013-03-23 20:33:00,
2013-03-23 15:43:00,43.0,19.0,-100.00,West,275,4.0,10.0,38,0.00,,,0.00,547.000000,,2013-03-23 20:43:00,
2013-03-23 15:53:00,43.0,19.0,-100.00,West,275,4.0,10.0,38,0.00,,,0.00,547.000000,,2013-03-23 20:53:00,
2013-03-23 16:02:00,43.0,19.0,-100.00,West,275,4.0,10.0,38,0.00,,,0.00,547.000000,,2013-03-23 21:02:00,
2013-03-23 16:33:00,42.0,19.0,-100.00,NW,322,5.0,9.0,40,0.00,,,0.00,601.000000,,2013-03-23 21:33:00,
2013-03-23 16:43:00,42.0,19.0,-100.00,NW,322,5.0,9.0,40,0.00,,,0.00,601.000000,,2013-03-23 21:43:00,
2013-03-23 16:54:00,42.0,19.0,-100.00,NW,322,5.0,9.0,40,0.00,,,0.00,601.000000,,2013-03-23 21:54:00,
2013-03-23 17:03:00,42.0,19.0,-100.00,NW,322,5.0,9.0,40,0.00,,,0.00,601.000000,,2013-03-23 22:03:00,
2013-03-23 17:33:00,42.0,20.0,-100.00,NNE,24,3.0,7.0,41,0.00,,,0.00,435.000000,,2013-03-23 22:33:00,
2013-03-23 17:43:00,42.0,20.0,-100.00,NNE,24,3.0,7.0,41,0.00,,,0.00,435.000000,,2013-03-23 22:43:00,
2013-03-23 17:53:00,42.0,20.0,-100.00,NNE,24,3.0,7.0,41,0.00,,,0.00,435.000000,,2013-03-23 22:53:00,
2013-03-23 18:02:00,42.0,20.0,-100.00,NNE,24,3.0,7.0,41,0.00,,,0.00,435.000000,,2013-03-23 23:02:00,
2013-03-23 18:33:00,38.0,19.0,-100.00,NE,49,5.0,8.0,46,0.00,,,0.00,255.000000,,2013-03-23 23:33:00,
2013-03-23 18:43:00,38.0,19.0,-100.00,NE,49,5.0,8.0,46,0.00,,,0.00,255.000000,,2013-03-23 23:43:00,
2013-03-23 18:52:00,38.0,19.0,-100.00,NE,49,5.0,8.0,46,0.00,,,0.00,255.000000,,2013-03-23 23:52:00,
2013-03-23 19:02:00,38.0,19.0,-100.00,NE,49,5.0,8.0,46,0.00,,,0.00,255.000000,,2013-03-24 00:02:00,
2013-03-23 19:33:00,34.0,20.0,-100.00,East,99,5.0,9.0,57,0.00,,,-99.99,38.000000,,2013-03-24 00:33:00,
2013-03-23 19:42:00,34.0,20.0,-100.00,East,99,5.0,9.0,57,0.00,,,-99.99,38.000000,,2013-03-24 00:42:00,
2013-03-23 19:52:00,34.0,20.0,-100.00,East,99,5.0,9.0,57,0.00,,,-99.99,38.000000,,2013-03-24 00:52:00,
2013-03-23 20:02:00,34.0,20.0,-100.00,East,99,5.0,9.0,57,0.00,,,-99.99,38.000000,,2013-03-24 01:02:00,
2013-03-23 20:33:00,33.0,20.0,-100.00,SE,137,3.0,7.0,58,0.00,,,0.00,2.000000,,2013-03-24 01:33:00,
2013-03-23 20:43:00,33.0,20.0,-100.00,SE,137,3.0,7.0,58,0.00,,,0.00,2.000000,,2013-03-24 01:43:00,
2013-03-23 20:53:00,33.0,20.0,-100.00,SE,137,3.0,7.0,58,0.00,,,0.00,2.000000,,2013-03-24 01:53:00,
2013-03-23 21:03:00,33.0,20.0,-100.00,SE,137,3.0,7.0,58,0.00,,,0.00,2.000000,,2013-03-24 02:03:00,
2013-03-23 21:32:00,32.0,20.0,-100.00,SSE,150,4.0,7.0,62,0.00,,,0.00,0.000000,,2013-03-24 02:32:00,
2013-03-23 21:43:00,32.0,20.0,-100.00,SSE,150,4.0,7.0,62,0.00,,,0.00,0.000000,,2013-03-24 02:43:00,
2013-03-23 21:52:00,32.0,20.0,-100.00,SSE,150,4.0,7.0,62,0.00,,,0.00,0.000000,,2013-03-24 02:52:00,
2013-03-23 22:02:00,32.0,20.0,-100.00,SSE,150,4.0,7.0,62,0.00,,,0.00,0.000000,,2013-03-24 03:02:00,
2013-03-23 22:33:00,31.0,22.0,-100.00,SSE,148,3.0,5.0,68,0.00,,,0.00,0.000000,,2013-03-24 03:33:00,
2013-03-23 22:43:00,31.0,22.0,-100.00,SSE,148,3.0,5.0,68,0.00,,,0.00,0.000000,,2013-03-24 03:43:00,
2013-03-23 22:53:00,31.0,22.0,-100.00,SSE,148,3.0,5.0,68,0.00,,,0.00,0.000000,,2013-03-24 03:53:00,
2013-03-23 23:03:00,31.0,22.0,-100.00,SSE,148,3.0,5.0,68,0.00,,,0.00,0.000000,,2013-03-24 04:03:00,
2013-03-23 23:33:00,30.0,22.0,-100.00,ENE,72,4.0,6.0,73,0.00,,,0.00,0.000000,,2013-03-24 04:33:00,
2013-03-23 23:43:00,30.0,22.0,-100.00,ENE,72,4.0,6.0,73,0.00,,,0.00,0.000000,,2013-03-24 04:43:00,
2013-03-23 23:53:00,30.0,22.0,-100.00,ENE,72,4.0,6.0,73,0.00,,,0.00,0.000000,,2013-03-24 04:53:00,